Regional Weather Roundup
Issued by NWS Cleveland, OH

Home | Current Version | Previous Version | Graphics & Text | Print | Product List | Glossary On
Versions: 1 2 3 4 5 6 7 8 9 10 11 12 13 14 15 16 17 18 19 20 21 22 23 24 25 26 27 28 29 30 31 32 33 34 35 36 37 38 39 40 41 42 43 44 45 46 47 48 49 50
000
ASUS41 KCLE 210302
RWRCLE
OHIO REGIONAL WEATHER ROUNDUP
NATIONAL WEATHER SERVICE CLEVELAND, OH
1000 PM EST FRI JAN 20 2017

NOTE: "FAIR" INDICATES FEW OR NO CLOUDS BELOW 12,000 FEET WITH NO
SIGNIFICANT WEATHER AND/OR OBSTRUCTIONS TO VISIBILITY.

OHZ001>008-015>018-024>027-034-035-043-044-210400-
   NORTHWEST OHIO

CITY           SKY/WX    TMP DP  RH WIND       PRES   REMARKS
DEFIANCE       CLOUDY    44  43  96 SE3       29.74S
FINDLAY        CLOUDY    48  45  89 SE3       29.74F FOG
TOLEDO EXPRESS CLOUDY    46  46 100 S6        29.75S FOG
TOLEDO EXEC    CLOUDY    46  46 100 S6        29.77R FOG
LIMA           CLOUDY    48  47  96 SE7       29.74S
$$

OHZ009>014-019>023-028>033-038-089-210400-
   NORTHEAST OHIO

CITY           SKY/WX    TMP DP  RH WIND       PRES   REMARKS
CLE-HOPKINS    CLOUDY    51  47  86 SW3       29.80R
CLE-LAKEFRONT  CLOUDY    44  43  96 CALM      29.77R FOG
CUY CO. ARPT   CLOUDY    46  46 100 CALM      29.78R FOG
LORAIN-ELYRIA  MOCLDY    48  45  89 SW6       29.78R
ASHTABULA      FOG       46  46 100 S3        29.79R VSB 1/2
AKRON-CANTON   MOCLDY    51  46  83 SW7       29.79R
WOOSTER        MOCLDY    49  46  90 SW6       29.79R
MANSFIELD      CLOUDY    48  46  93 SW7       29.78R
YOUNGSTOWN     PTCLDY    49  48  97 S5        29.79R
$$

OHZ042-051>053-060>062-070>072-077>081-210400-
  SOUTHWEST OHIO

CITY           SKY/WX    TMP DP  RH WIND       PRES   REMARKS
CINC-COVINGTON CLOUDY    52  48  86 S6        29.74S
CINC-LUNKEN    MOCLDY    47  47 100 CALM      29.76S
HAMILTON       CLOUDY    50  48  93 E5        29.76R
DAYTON         PTCLDY    46  44  93 SE7       29.76S
WRIGHT-PAT AFB NOT AVBL
DAYTON GENERAL NOT AVBL
WILMINGTON     PTCLDY    48  46  93 SE5       29.77S
$$

OHZ036-037-039>041-045>050-054>059-063>069-073>076-082>088-210400-
  CENTRAL AND SOUTHEAST OHIO

CITY           SKY/WX    TMP DP  RH WIND       PRES   REMARKS
COLUMBUS       PTCLDY    51  47  86 SE6       29.78S
OSU AIRPORT    CLOUDY    47  47 100 CALM      29.77S
BOLTON FIELD   NOT AVBL
RICKENBACK AFB   N/A     48  48  99 S8        29.78S
NEWARK         FOG       44  43  96 CALM      29.79R VSB 3/4
MARION         MOCLDY    46  42  86 S5        29.78R
LANCASTER      PTCLDY    47  45  93 CALM      29.80R
ZANESVILLE     CLOUDY    46  45  96 S3        29.80S FOG
NEW PHILLY     NOT AVBL
$$



USA.gov is the U.S. government's official web portal to all federal, state and local government web resources and services.